Hourly Data Report for September 01, 2015

All times are specified in Local Standard Time (LST). Add 1 hour to adjust for Daylight Saving Time where and when it is observed.

Metadata including Station Name, Province, Latitude, Longitude, Elevation, Climate ID, WMO ID, TC ID
CHATHAM KENT
ONTARIO
Latitude: 42°18'21.000" N Longitude: 82°04'57.000" W Elevation: 196.60 m
Climate ID: 6131414 WMO ID: TC ID: YCK
Hourly Data Report for September 1, 2015
Temp Definition
°C

Dew Point Temp Definition
°C

Rel Hum Definition
%

Wind Dir Definition
10's deg
Wind Spd Definition
km/h

Visibility Definition
km

Stn Press Definition
kPa

Hmdx Definition

Wind Chill Definition

Weather Definition

00:00 Legend Double Dagger 17.5 17.5 100 22 4 4.0 99.49 Fog
01:00 Legend Double Dagger 18.0 18.0 100   0 0.4 99.50 Fog
02:00 Legend Double Dagger 17.4 17.4 100   0 1.6 99.46 Fog
03:00 Legend Double Dagger 17.4 17.4 100   0 0.4 99.45 Fog
04:00 Legend Double Dagger 16.8 16.8 100 15 4 0.0 99.46 Fog
05:00 Legend Double Dagger 16.9 16.9 100 15 4 0.2 99.48 Fog
06:00 Legend Double Dagger 16.7 16.7 100 17 4 0.0 99.53 Fog
07:00 Legend Double Dagger 18.4 18.4 100   0 0.0 99.56 Fog
08:00 Legend Double Dagger 20.3 LegendMM LegendMM 26 4 0.0 99.58 Fog
09:00 Legend Double Dagger 22.5 LegendMM LegendMM LegendMM 4 4.0 99.59 LegendNANA
10:00 Legend Double Dagger 24.1 LegendMM LegendMM 33 9 12.9 99.60 LegendNANA
11:00 Legend Double Dagger 25.1 24.4 96 33 9 16.1 99.57 37 LegendNANA
12:00 Legend Double Dagger 27.5 21.3 69 27 5 16.1 99.54 36 LegendNANA
13:00 Legend Double Dagger 28.1 22.0 69 17 17 16.1 99.51 37 LegendNANA
14:00 Legend Double Dagger 27.8 21.0 66 20 21 16.1 99.50 36 LegendNANA
15:00 Legend Double Dagger 27.6 20.0 63 20 17 16.1 99.44 35 LegendNANA
16:00 Legend Double Dagger 27.4 20.4 65 20 17 16.1 99.41 35 LegendNANA
17:00 Legend Double Dagger 26.7 20.8 70 18 15 16.1 99.37 35 LegendNANA
18:00 Legend Double Dagger 25.5 21.9 80 18 15 16.1 99.40 35 LegendNANA
19:00 Legend Double Dagger 23.7 22.7 94 17 9 12.9 99.38 34 LegendNANA
20:00 Legend Double Dagger 22.3 22.1 99 18 8 8.1 99.42 32 Fog
21:00 Legend Double Dagger 23.3 23.1 99 19 11 8.1 99.44 34 Fog
22:00 Legend Double Dagger 22.3 22.3 100 19 11 6.4 99.44 32 Fog
23:00 Legend Double Dagger 22.1 21.8 98 21 13 11.3 99.45 31 LegendNANA

Notes on Data Quality.

Legend
  • E = Estimated
  • M = Missing
  • NA = Not Available
  • ‡ = Partner data that is not subject to review by the National Climate Archives